EW2804 Weather Reports


time (UTC)temp
F
wind
direction
speed
knots
gust
knots
rain 1hr
in
rain 24hr
in
rain mn
in
humidity
%
barometer
mb
20260831100334 79 154 0.0 0.0 0.00 0.00 0.00 64 1012.5
20260831095348 80 154 0.0 0.0 0.00 0.00 0.00 64 1012.4
20260831094352 81 154 0.0 0.0 0.00 0.00 0.00 62 1012.4
20260831093331 81 154 0.0 0.0 0.00 0.00 0.00 61 1012.4
20260831092314 81 154 0.0 0.0 0.00 0.00 0.00 61 1012.4
20260831091314 82 154 0.0 0.0 0.00 0.00 0.00 59 1012.3
20260831090326 82 154 0.0 0.0 0.00 0.00 0.00 58 1012.3
20260831085312 83 154 0.0 0.0 0.00 0.00 0.00 57 1012.2
20260831084252 83 158 0.0 0.0 0.00 0.00 0.00 56 1012.2
20260831083251 83 153 0.0 0.9 0.00 0.00 0.00 56 1012.2
20260831082252 83 153 0.0 2.6 0.00 0.00 0.00 55 1012.3
20260831081222 83 142 0.0 0.9 0.00 0.00 0.00 56 1012.3
20260831080211 82 175 0.0 2.6 0.00 0.00 0.00 56 1012.2
20260831075141 81 92 0.0 4.3 0.00 0.00 0.00 58 1012.1
20260831073021 77 128 0.0 0.0 0.00 0.00 0.00 65 1011.9
20260831070825 77 128 0.0 0.0 0.00 0.00 0.00 68 1012.0
20260831065805 77 128 0.0 0.0 0.00 0.00 0.00 67 1012.0
20260831063636 77 128 0.0 0.0 0.00 0.00 0.00 66 1012.2
20260831061433 78 128 0.0 0.0 0.00 0.00 0.00 66 1012.2
20260831060410 78 128 0.0 0.0 0.00 0.00 0.00 66 1012.1
20260831055430 78 128 0.0 0.0 0.00 0.00 0.00 65 1012.1
20260831052213 79 128 0.0 0.0 0.00 0.00 0.00 64 1012.0
20260831051156 79 128 0.0 0.0 0.00 0.00 0.00 63 1011.9
20260831050157 80 128 0.0 0.0 0.00 0.00 0.00 63 1011.9
20260831045204 80 128 0.0 0.0 0.00 0.00 0.00 62 1011.8
20260831044137 81 128 0.0 0.0 0.00 0.00 0.00 62 1011.9
20260831043136 81 128 0.0 0.0 0.00 0.00 0.00 61 1011.9
20260831042155 82 128 0.0 0.0 0.00 0.00 0.00 59 1011.9
20260831040023 83 128 0.0 0.0 0.00 0.00 0.00 57 1011.8
20260831035019 83 128 0.0 0.0 0.00 0.00 0.00 56 1011.7
20260831034014 84 128 0.0 0.0 0.00 0.00 0.00 55 1011.7
20260831031847 85 128 0.0 0.0 0.00 0.00 0.00 54 1011.6
20260831030830 85 128 0.0 0.0 0.00 0.00 0.00 53 1011.5
20260831025815 85 128 0.0 0.0 0.00 0.00 0.00 52 1011.4
20260831024741 85 128 0.0 0.0 0.00 0.00 0.00 50 1011.3
20260831021515 87 128 0.0 0.0 0.00 0.00 0.00 45 1011.0
20260831015421 87 128 0.0 0.0 0.00 0.00 0.00 45 1010.6
20260831014422 88 128 0.0 0.0 0.00 0.00 0.00 43 1010.4
20260831013409 90 128 0.0 0.0 0.00 0.00 0.00 40 1010.4
20260831011221 94 128 0.0 0.0 0.00 0.00 0.00 36 1010.1
20260831010223 95 128 0.0 0.0 0.00 0.00 0.00 34 1010.1
20260831005211 96 128 0.0 0.0 0.00 0.00 0.00 31 1010.1
20260831003012 98 139 0.9 3.5 0.00 0.00 0.00 29 1010.1
20260831002011 98 200 0.9 5.2 0.00 0.00 0.00 28 1010.1
20260831001032 99 161 0.9 5.2 0.00 0.00 0.00 27 1010.0
20260830235957 99 157 0.9 3.5 0.00 0.00 0.00 27 1010.1
20260830235015 99 114 0.0 1.7 0.00 0.00 0.00 27 1010.1
20260830232843 100 222 1.7 5.2 0.00 0.00 0.00 28 1010.2
20260830231832 100 150 1.7 6.1 0.00 0.00 0.00 25 1010.2
20260830225622 100 241 0.9 5.2 0.00 0.00 0.00 28 1010.2
20260830224633 100 192 1.7 5.2 0.00 0.00 0.00 26 1010.3
20260830221324 100 90 1.7 7.0 0.00 0.00 0.00 27 1010.5
20260830220327 101 112 1.7 7.0 0.00 0.00 0.00 28 1010.5
20260830215331 101 202 2.6 6.1 0.00 0.00 0.00 28 1010.4
20260830213159 101 153 1.7 9.6 0.00 0.00 0.00 28 1010.6
20260830212124 101 185 3.5 9.6 0.00 0.00 0.00 27 1010.6
20260830204824 101 154 1.7 7.0 0.00 0.00 0.00 26 1011.1
20260830203843 101 215 1.7 7.0 0.00 0.00 0.00 27 1011.2
20260830202849 102 115 1.7 7.0 0.00 0.00 0.00 27 1011.3
20260830201819 102 266 1.7 5.2 0.00 0.00 0.00 26 1011.4
20260830200758 102 161 1.7 6.1 0.00 0.00 0.00 29 1011.5
20260830195803 101 227 2.6 8.7 0.00 0.00 0.00 29 1011.7
20260830194741 101 120 2.6 8.7 0.00 0.00 0.00 28 1011.8
20260830193718 100 193 1.7 7.8 0.00 0.00 0.00 30 1011.9
20260830192718 101 150 1.7 7.8 0.00 0.00 0.00 30 1012.1
20260830191707 100 235 2.6 7.0 0.00 0.00 0.00 32 1012.2
20260830190631 100 236 1.7 7.8 0.00 0.00 0.00 31 1012.3
20260830185642 100 205 2.6 7.8 0.00 0.00 0.00 33 1012.4
20260830184621 100 227 2.6 7.8 0.00 0.00 0.00 34 1012.5
20260830183544 99 296 2.6 8.7 0.00 0.00 0.00 33 1012.7
20260830182541 99 138 3.5 10.4 0.00 0.00 0.00 33 1012.9
20260830181601 99 193 3.5 10.4 0.00 0.00 0.00 33 1013.1
20260830180546 99 259 2.6 9.6 0.00 0.00 0.00 34 1013.2
20260830175604 99 217 2.6 8.7 0.00 0.00 0.00 33 1013.3
20260830174612 98 194 2.6 10.4 0.00 0.00 0.00 37 1013.4
20260830171340 97 144 2.6 7.8 0.00 0.00 0.00 40 1013.9
20260830170353 97 121 1.7 7.0 0.00 0.00 0.00 40 1014.0
20260830165408 96 158 2.6 7.8 0.00 0.00 0.00 40 1014.1
20260830164347 95 238 2.6 7.8 0.00 0.00 0.00 43 1014.2
20260830163342 95 178 2.6 7.0 0.00 0.00 0.00 43 1014.2
20260830162328 95 231 1.7 7.0 0.00 0.00 0.00 44 1014.3
20260830161319 94 205 2.6 7.0 0.00 0.00 0.00 45 1014.4
20260830155222 93 46 1.7 7.8 0.00 0.00 0.00 48 1014.5
20260830154210 92 160 2.6 7.8 0.00 0.00 0.00 49 1014.4
20260830153219 92 216 1.7 6.1 0.00 0.00 0.00 49 1014.4
20260830152216 92 184 1.7 6.1 0.00 0.00 0.00 50 1014.3
20260830151145 91 239 1.7 6.1 0.00 0.00 0.00 50 1014.4
20260830150117 91 216 0.9 6.1 0.00 0.00 0.00 52 1014.5
20260830145122 90 229 0.9 5.2 0.00 0.00 0.00 54 1014.4
20260830144054 89 166 0.9 6.1 0.00 0.00 0.00 54 1014.4
20260830143101 88 116 0.9 6.1 0.00 0.00 0.00 56 1014.3
20260830142048 87 231 0.9 3.5 0.00 0.00 0.00 58 1014.4
20260830141034 86 251 0.9 3.5 0.00 0.00 0.00 59 1014.4
20260830140014 85 259 0.9 2.6 0.00 0.00 0.00 64 1014.5
20260830135032 83 186 0.0 3.5 0.00 0.00 0.00 66 1014.5
20260830134023 82 171 0.0 3.5 0.00 0.00 0.00 69 1014.4
20260830133015 80 153 0.0 0.0 0.00 0.00 0.00 73 1014.4
20260830131947 77 119 0.0 1.7 0.00 0.00 0.00 77 1014.3
20260830131000 76 188 0.0 0.0 0.00 0.00 0.00 77 1014.2
20260830125925 76 188 0.0 0.0 0.00 0.00 0.00 78 1014.1
20260830124909 75 188 0.0 0.0 0.00 0.00 0.00 77 1014.0
20260830123833 75 188 0.0 0.0 0.00 0.00 0.00 77 1013.8
20260830122832 75 135 0.0 0.0 0.00 0.00 0.00 76 1013.7
20260830121811 75 135 0.0 0.0 0.00 0.00 0.00 76 1013.6
20260830120834 75 135 0.0 0.0 0.00 0.00 0.00 76 1013.6
20260830115833 75 128 0.0 0.0 0.00 0.00 0.00 75 1013.4
20260830114803 75 128 0.0 0.0 0.00 0.00 0.00 75 1013.2
20260830112716 76 128 0.0 0.0 0.00 0.00 0.00 75 1013.0
20260830111706 76 128 0.0 0.0 0.00 0.00 0.00 73 1012.9
20260830110724 76 128 0.0 0.0 0.00 0.00 0.00 71 1012.8
20260830104540 77 128 0.0 0.0 0.00 0.00 0.00 70 1012.7
20260830103547 77 128 0.0 0.0 0.00 0.00 0.00 70 1012.6
20260830102600 77 128 0.0 0.0 0.00 0.00 0.00 68 1012.6